DW5868 Weather Reports


Display with metric or nautical units.
time (UTC)temp
F
wind
direction
speed
MPH
gust
MPH
rain 1hr
in
rain 24hr
in
rain mn
in
humidity
%
barometer
mb
20260901054525 53 233 5.0 15.0 0.00 0.00 0.00 55 1004.9
20260901053024 53 257 6.0 13.0 0.00 0.00 0.00 56 1004.9
20260901051524 52 284 4.0 17.0 0.00 0.00 0.00 55 1004.6
20260901050024 52 283 5.0 11.0 0.00 0.00 0.00 56 1004.4
20260901044523 52 218 5.0 11.0 0.00 0.00 0.00 56 1004.3
20260901043028 53 246 6.0 18.0 0.00 0.00 0.00 55 1004.2
20260901041523 53 202 7.0 21.0 0.00 0.00 0.00 55 1004.5
20260901040023 53 280 6.0 18.0 0.00 0.00 0.00 55 1004.3
20260901034522 53 179 4.0 15.0 0.00 0.00 0.00 55 1004.5
20260901033026 53 242 5.0 18.0 0.00 0.00 0.00 55 1004.5
20260901031530 53 132 6.0 14.0 0.00 0.00 0.00 56 1004.3
20260901030021 54 209 5.0 17.0 0.00 0.00 0.00 56 1004.1
20260901024521 54 230 5.0 20.0 0.00 0.00 0.00 55 1003.6
20260901023026 55 205 6.0 16.0 0.00 0.00 0.00 54 1003.8
20260901021521 56 226 3.0 13.0 0.00 0.00 0.00 55 1003.5
20260901020030 56 207 3.0 15.0 0.00 0.00 0.00 54 1003.3
20260901014522 57 223 3.0 16.0 0.00 0.00 0.00 52 1003.5
20260901013029 58 250 3.0 16.0 0.00 0.00 0.00 50 1003.4
20260901011517 60 184 3.0 12.0 0.00 0.00 0.00 48 1003.5
20260901010021 61 200 5.0 15.0 0.00 0.00 0.00 48 1003.6
20260901004518 62 227 3.0 15.0 0.00 0.00 0.00 47 1003.7
20260901003017 62 227 5.0 12.0 0.00 0.00 0.00 46 1003.9
20260901001523 63 202 5.0 18.0 0.00 0.00 0.00 43 1004.1
20260901000015 63 259 5.0 12.0 0.00 0.00 0.00 44 1004.0
20260831234515 64 279 8.0 25.0 0.00 0.00 0.00 43 1004.0
20260831233014 64 169 5.0 17.0 0.00 0.00 0.00 41 1004.1
20260831231515 64 272 5.0 15.0 0.00 0.00 0.00 40 1004.1
20260831230014 66 242 7.0 18.0 0.00 0.00 0.00 38 1004.1
20260831224513 66 269 4.0 18.0 0.00 0.00 0.00 38 1004.0
20260831223009 66 272 4.0 13.0 0.00 0.00 0.00 37 1004.1
20260831221509 66 231 6.0 23.0 0.00 0.00 0.00 37 1004.3
20260831220008 66 218 4.0 14.0 0.00 0.00 0.00 35 1004.2
20260831214507 67 270 7.0 20.0 0.00 0.00 0.00 35 1004.2
20260831213011 66 298 7.0 21.0 0.00 0.00 0.00 34 1004.4
20260831211508 67 287 4.0 16.0 0.00 0.00 0.00 33 1004.6
20260831210007 68 280 6.0 16.0 0.00 0.00 0.00 29 1004.5
20260831204507 69 265 4.0 14.0 0.00 0.00 0.00 30 1004.7
20260831203008 67 248 8.0 17.0 0.00 0.00 0.00 27 1004.8
20260831201510 68 306 5.0 21.0 0.00 0.00 0.00 27 1004.7
20260831200007 68 257 3.0 13.0 0.00 0.00 0.00 28 1004.8
20260831194507 68 232 6.0 14.0 0.00 0.00 0.00 27 1004.8
20260831193008 68 281 6.0 15.0 0.00 0.00 0.00 26 1005.0
20260831191504 68 320 6.0 15.0 0.00 0.00 0.00 26 1005.0
20260831190004 69 309 2.0 13.0 0.00 0.00 0.00 26 1005.1
20260831184504 69 237 1.0 6.0 0.00 0.00 0.00 26 1005.2
20260831183006 68 256 4.0 9.0 0.00 0.00 0.00 25 1005.2
20260831181502 68 300 2.0 8.0 0.00 0.00 0.00 27 1005.2
20260831180001 68 287 2.0 10.0 0.00 0.00 0.00 26 1005.1
20260831174603 68 305 2.0 7.0 0.00 0.00 0.00 25 1005.0
20260831173128 67 199 2.0 7.0 0.00 0.00 0.00 28 1005.0
20260831171557 66 182 1.0 10.0 0.00 0.00 0.00 28 1005.0
20260831170056 66 26 0.0 5.0 0.00 0.00 0.00 28 1004.9
20260831164606 65 90 2.0 7.0 0.00 0.00 0.00 31 1004.9
20260831163056 64 82 4.0 8.0 0.00 0.00 0.00 31 1004.8
20260831161553 64 76 3.0 6.0 0.00 0.00 0.00 32 1005.0
20260831160100 65 28 1.0 4.0 0.00 0.00 0.00 27 1005.1
20260831154548 63 132 0.0 5.0 0.00 0.00 0.00 30 1005.2
20260831153047 62 280 1.0 4.0 0.00 0.00 0.00 29 1005.2
20260831151545 60 269 1.0 8.0 0.00 0.00 0.00 31 1005.1
20260831150041 59 344 1.0 12.0 0.00 0.00 0.00 33 1005.1
20260831144537 57 30 4.0 10.0 0.00 0.00 0.00 35 1005.0
20260831143035 56 250 3.0 15.0 0.00 0.00 0.00 37 1004.9
20260831141533 55 254 5.0 11.0 0.00 0.00 0.00 39 1004.7
20260831140031 0 0.0 0.0 0.00 0.00 0.00 1004.2
20260831134528 0 0.0 0.0 0.00 0.00 0.00 1004.2
20260831133033 0 0.0 0.0 0.00 0.00 0.00 1004.1
20260831131519 0 0.0 0.0 0.00 0.00 0.00 1004.1
20260831130017 0 0.0 0.0 0.00 0.00 0.00 1004.2
20260831124533 0 0.0 0.0 0.00 0.00 0.00 1004.3
20260831123007 0 0.0 0.0 0.00 0.00 0.00 1004.4
20260831121503 0 0.0 0.0 0.00 0.00 0.00 1004.7
20260831120100 0 0.0 0.0 0.00 0.00 0.00 1005.0
20260831114558 54 183 1.0 12.0 0.00 0.00 0.00 41 1005.2
20260831113059 55 280 4.0 14.0 0.00 0.00 0.00 40 1005.2
20260831111612 55 272 4.0 11.0 0.00 0.00 0.00 40 1005.3
20260831110056 55 261 2.0 10.0 0.00 0.00 0.00 40 1005.4
20260831104605 54 268 2.0 10.0 0.00 0.00 0.00 40 1005.5
20260831103059 53 246 1.0 9.0 0.00 0.00 0.00 42 1005.5
20260831101555 47 271 0.0 3.0 0.00 0.00 0.00 56 1005.4
20260831100048 47 51 0.0 0.0 0.00 0.00 0.00 54 1005.5
20260831094603 47 277 0.0 3.0 0.00 0.00 0.00 59 1005.5
20260831093051 47 280 0.0 1.0 0.00 0.00 0.00 58 1005.6
20260831091549 48 275 0.0 2.0 0.00 0.00 0.00 56 1005.5
20260831090044 48 280 0.0 1.0 0.00 0.00 0.00 56 1005.6
20260831084541 49 279 0.0 1.0 0.00 0.00 0.00 53 1005.7
20260831083045 50 284 0.0 0.0 0.00 0.00 0.00 52 1005.7
20260831081537 50 282 0.0 1.0 0.00 0.00 0.00 51 1005.8
20260831080034 50 280 0.0 2.0 0.00 0.00 0.00 51 1005.9
20260831074537 52 280 0.0 1.0 0.00 0.00 0.00 46 1006.1
20260831073032 53 280 0.0 2.0 0.00 0.00 0.00 43 1006.1
20260831071530 55 275 0.0 1.0 0.00 0.00 0.00 41 1006.3
20260831070031 56 34 0.0 5.0 0.00 0.00 0.00 38 1006.2
20260831064530 57 226 1.0 9.0 0.00 0.00 0.00 38 1006.1
20260831063027 57 284 1.0 8.0 0.00 0.00 0.00 38 1006.1
20260831061527 58 298 2.0 17.0 0.00 0.00 0.00 37 1006.0
20260831060027 58 248 2.0 9.0 0.00 0.00 0.00 36 1006.2